星链-37202(STARLINK-37202)

导读

STARLINK-37202(NORAD编号68731)是SpaceX星链星座中的一颗互联网通信卫星。星链项目旨在构建全球覆盖的低轨卫星互联网,为偏远地区提供高速网络服务。这颗卫星作为星链大规模组网的一员,加入了已突破万颗规模的星座阵营,运行在近地轨道,通过星间和星地链路实现网络信号传输,支撑全球卫星互联网的服务覆盖能力,助力SpaceX推动全球太空互联基础设施建设。

基本信息
目录编号:
68731
目录名称:
STARLINK-37202
国际标识:
2026-082D
轨道中心:
EARTH
卫星名称:
星链-37202
卫星全名:
星链-37202(STARLINK-37202)
卫星状态:
在轨 (已飞行143 天)
发射日期:
2026-04-15 UTC
国别 :
美国 (US)
星等 :
--
轨道信息
数据来源 国际轨道数据
星历时间: 2026-09-05T12:17:05+0800
7小时前
查看轨道信息
半长轴: 6843.706km
偏心率: 0.0002344
轨道倾角: 97.285°
近地点辐角 96.425°
升交点赤经 110.488°
平近点角 263.726°
近地点: 463.964km
远地点: 467.174km
周期: 93.907分钟
每日圈数: 15.334364
详细信息
固有亮度:
5
最大亮度:
2.5
卫星平台:
Starlink V1.0
覆盖范围:
全球
运营商:
太空探索技术公司
运营商所在国:
美国
制造商(研发单位):
太空探索技术公司
制造商所在国:
美国
使用方式:
暂无
卫星简介
Starlink 计划是 SpaceX 推出的全球卫星互联网项目,通过发射低轨道卫星,为全球尤其是偏远地区提供高速、低延迟的互联网服务。自 2019 年起,Starlink 已部署数千颗卫星,旨在缩小全球数字鸿沟,推动互联网普及。该项目还为军事、航空等行业提供通信支持,带来广泛经济效益。
2D轨道图
3D轨道图
轨道高度分析图
轨道倾角分析图
轨道综合分析图
查看轨道综合分析图
交会数据列表
事件ID 空间交会对象 最接近时刻(TCA) 交会距离 交会风险概率(CRP) 交会风险指数(CRI) 操作
CDM_260905-101406-470506-873121
2026-09-05T
10:14:17+0000
2.267 km
极远距离
1.930361E-6 低风险 0.41
CDM_260905-202506-470506-873121
2026-09-05T
20:25:03+0000
2.590 km
极远距离
1.496359E-6 低风险 0.39
CDM_260903-044406-418506-873121
2026-09-03T
04:44:20+0000
2.810 km
极远距离
1.366726E-6 低风险 0.38
CDM_260906-210005-283406-873121
2026-09-06T
21:00:13+0000
2.993 km
极远距离
1.341298E-6 低风险 0.38
CDM_260831-011106-540506-873121
2026-08-31T
01:11:29+0000
2.961 km
极远距离
8.98616E-7 极低风险 0.34
CDM_260830-135905-674806-873123
OBJECT F (56748)
2026-08-30T
13:59:50+0000
2.419 km
极远距离
7.618557E-7 极低风险 0.33
CDM_260906-115906-581106-873121
2026-09-06T
11:59:53+0000
2.691 km
极远距离
3.472677E-7 极低风险 0.26